Location: *
(46.1866°S, 178.5290°W)
Time: 05:24:16
(UTC+00:00)

CZ-4B R/B - Pass Details

Date: 28 September 2021
Orbit: 809 x 881 km, 99.1° (Epoch: 17 October)

Event Time Altitude Azimuth Distance (km) Brightness Sun altitude
Rises 16:42:59 0° 50° (NE) 3,409 6.9 -8.9°
Reaches altitude 10° 16:45:39 10° 61° (ENE) 2,470 6.4 -8.5°
Maximum altitude 16:50:13 28° 118° (ESE) 1,538 5.5 -7.7°
Drops below altitude 10° 16:54:45 10° 174° (S) 2,457 5.8 -6.9°
Sets 16:57:23 0° 185° (S) 3,389 6.4 -6.5°
